Seattle, WA
on Friday, November 23, 2012

Friday
Previous Day Next Day
Daily Summary
 ActualAverageRecord
Temperature
Mean Temperature °F 44°F  
Max Temperature 49°F 49°F 58°F (1959)
Min Temperature 43°F 38°F 10°F (1985)
Degree Days
Heating Degree Days 19 21  
Month to date heating degree days 396 432  
Since 1 July heating degree days 889 1029  
Cooling Degree Days 0 0  
Month to date cooling degree days 0 0  
Year to date cooling degree days 177 189  
Moisture
Dew Point 44°F   
Average Humidity 90    
Maximum Humidity 96    
Minimum Humidity 83    
Precipitation
Precipitation 1.26 in 0.22 in 2.49 in (1986)
Month to date precipitation 6.71 5.02  
Year to date precipitation 39.84 30.59  
Snow
Snow 0.00 in in 0.40 in (1977)
Month to date snowfall 0.0  
Since 1 July snowfall 0.0  
Snow Depth 0.00 in   
Wind
Wind Speed 5 mph   
Max Wind Speed 15 mph   
Max Gust Speed 21 mph   
Visibility 5 miles   
Events Rain   

Key: T is trace of precipitation, MM is missing value
Source: NWS Daily Summary
Time(PST)TemperatureDew PointHumidity Pressure Visibility Wind DirectionWind SpeedGust SpeedPrecipitationEvents Conditions
12:53 AM 44.1°F 39.0°F 82% 30.24 in 10.0 miles SE 4.6 mph - 0.03 in Rain Light Rain
1:53 AM 44.1°F 39.0°F 82% 30.19 in 10.0 miles SE 3.5 mph - 0.04 in Rain Light Rain
2:53 AM 43.0°F 39.9°F 89% 30.19 in 10.0 miles SSE 3.5 mph - 0.01 in Rain Light Rain
3:53 AM 43.0°F 41.0°F 93% 30.17 in 6.0 miles Calm Calm - 0.01 in Rain Light Rain
4:53 AM 44.1°F 41.0°F 89% 30.18 in 10.0 miles WNW 6.9 mph - 0.02 in Rain Light Rain
5:53 AM 44.1°F 39.9°F 85% 30.14 in 6.0 miles Calm Calm - 0.03 in Rain Light Rain
6:53 AM 44.1°F 41.0°F 89% 30.14 in 6.0 miles WNW 4.6 mph - 0.03 in Rain Light Rain
7:41 AM 44.6°F 41.0°F 87% 30.12 in 6.0 miles NW 4.6 mph - 0.04 in Rain Light Rain
7:53 AM 44.1°F 42.1°F 93% 30.14 in 7.0 miles North 4.6 mph - 0.04 in Rain Light Rain
8:39 AM 44.6°F 42.8°F 93% 30.12 in 1.5 miles North 5.8 mph - 0.04 in Rain Rain
8:53 AM 44.1°F 42.1°F 93% 30.15 in 1.2 miles North 6.9 mph - 0.07 in Rain Rain
8:59 AM 44.6°F 42.8°F 93% 30.12 in 1.5 miles NNE 4.6 mph - 0.02 in Rain Rain
9:53 AM 45.0°F 43.0°F 93% 30.13 in 2.5 miles Variable 3.5 mph - 0.14 in Rain Light Rain
10:30 AM 44.6°F 42.8°F 93% 30.13 in 0.5 miles West 5.8 mph - 0.04 in Rain Rain
10:32 AM 44.6°F 42.8°F 93% 30.13 in 0.5 miles WNW 4.6 mph - 0.05 in Rain Heavy Rain
10:45 AM 44.6°F 42.8°F 93% 30.12 in 0.5 miles Calm Calm - 0.13 in Rain Rain
10:53 AM 45.0°F 42.1°F 90% 30.13 in 2.0 miles SE 3.5 mph - 0.15 in Rain Rain
11:22 AM 46.4°F 44.6°F 93% 30.10 in 2.0 miles Calm Calm - 0.03 in Rain Rain
11:34 AM 44.6°F 42.8°F 93% 30.10 in 2.0 miles WNW 4.6 mph - 0.07 in Rain Rain
11:53 AM 46.0°F 44.1°F 93% 30.12 in 2.0 miles Calm Calm - 0.14 in Rain Rain
12:53 PM 46.9°F 45.0°F 93% 30.10 in 1.5 miles Calm Calm - 0.05 in Rain Light Rain
1:21 PM 46.4°F 44.6°F 93% 30.07 in 1.5 miles Calm Calm - 0.04 in Rain Rain
1:44 PM 46.4°F 44.6°F 93% 30.07 in 1.5 miles Calm Calm - 0.17 in Rain Rain
1:53 PM 46.9°F 44.1°F 90% 30.10 in 1.5 miles Calm Calm - 0.21 in Rain Heavy Rain
2:53 PM 48.0°F 45.0°F 89% 30.08 in 1.5 miles SSE 5.8 mph - 0.15 in Rain Light Rain
3:51 PM 48.2°F 44.6°F 87% 30.05 in 2.0 miles SSE 4.6 mph - 0.11 in Rain Light Rain
3:53 PM 48.0°F 45.0°F 89% 30.08 in 2.0 miles SSE 4.6 mph - 0.11 in Rain Light Rain
4:53 PM 48.0°F 46.0°F 93% 30.06 in 2.0 miles SSE 5.8 mph - 0.03 in   Overcast
5:11 PM 48.2°F 46.4°F 93% 30.04 in 2.0 miles SSE 4.6 mph - 0.00 in Rain Light Rain
5:53 PM 48.0°F 46.0°F 93% 30.06 in 2.0 miles SSE 11.5 mph - 0.01 in   Overcast
6:53 PM 48.9°F 46.9°F 93% 30.06 in 2.0 miles SSW 5.8 mph - N/A   Overcast
7:53 PM 48.9°F 46.0°F 90% 30.09 in 10.0 miles SW 12.7 mph 19.6 mph N/A   Overcast
8:53 PM 48.9°F 46.9°F 93% 30.10 in 10.0 miles SSW 9.2 mph - 0.00 in   Overcast
9:02 PM 48.2°F 46.4°F 93% 30.08 in 10.0 miles SSW 9.2 mph - N/A   Overcast
9:53 PM 48.2°F 46.4°F 93% 30.10 in 10.0 miles SW 11.5 mph - N/A   Mostly Cloudy
10:48 PM 48.2°F 46.4°F 93% 30.11 in 10.0 miles SW 9.2 mph - N/A   Overcast
10:53 PM 48.9°F 45.0°F 86% 30.14 in 10.0 miles SW 10.4 mph - N/A   Overcast
11:29 PM 48.2°F 44.6°F 87% 30.12 in 10.0 miles SW 8.1 mph - N/A   Overcast
11:53 PM 48.0°F 45.0°F 89% 30.16 in 10.0 miles SW 9.2 mph - N/A   Overcast
Moon Phase
Nov. 23 Nov. 28 Dec. 06 Dec. 13 Dec. 20
Sunrise:07:26 AM (PST) Moon Rise:01:56 PM (PST)11/23
Sunset:04:25 PM (PST) Moon Set:02:34 AM (PST)11/23

Copyright © 2014 The Weather Underground, Inc.